Location: Plzen
(49.7500°N, 13.3670°E)
Time: 18:05:39
(UTC+02:00)

ISS - Pass Details

Date: 21 May 2021
Orbit: 417 x 422 km, 51.6° (Epoch: 16 June)

Event Time Altitude Azimuth Distance (km) Brightness Sun altitude
Rises 22:07:39 0° 268° (W) 2,363 0.7 -9.8°
Reaches altitude 10° 22:09:46 10° 272° (W) 1,500 -0.3 -10.1°
Maximum altitude 22:13:06 63° 354° (N) 475 -3.3 -10.4°
Drops below altitude 10° 22:16:27 10° 77° (ENE) 1,505 -1.2 -10.8°
Enters shadow 22:18:23 - 80° (E) 2,290 -0.3 -11.0°
